Find Starlink 34750

NORAD ID: 65061 Int'l Des: 2025-165 Owner: SPXS Country: US Constellation: starlink operational
LEOCIRCULARRETROGRADESSO

Live-Position

3D-Globus wird geladen...

Über Starlink 34750

Beschreibung wird geladen...

Nächste Überflüge

Passes for default location (London). Set your location on the main map for personalized predictions.

Höhenverlauf

Loading altitude history...

Zweizeiliger Elementsatz

1 65061U 25165F 26104.89877733 .00004597 00000-0 32252-3 0 9994
2 65061 97.6036 182.9943 0000787 243.1095 117.0052 15.05657609 40243
Epoch: 14. Apr. 2026 • Age: 9 hours

Aktueller Status

Höhe 554.5 km
Geschwindigkeit 7.59 km/s
Subsatellitenpunkt 36.20°N, 72.79°E
Startdatum 31. Juli 2025
Alter 0.7 years
Typ internet

Technische Details

Klassifizierung Payload
Masse 575.00 kg
Trockenmasse 530.00 kg
Gesamtmasse 575.00 kg
Länge 0.30 m
Durchmesser 4.10 m
Spannweite 29.00 m
Form Box + pan
Hersteller SPXS
Bus-Typ Starlink V2MO
Phasenstatus In Orbit
Besitzer/Staat SPXS/US

Most Searched